Home > Weather > Białystok > Past weeks

Flag for Poland Past Weather in Białystok, Poland — Yesterday and Last 2 Weeks

Now
67 °F

Overcast.


Feels Like: 67 °F
Forecast: 64 / 78 °F
Wind: 3 mph from East

Location: Bialystok

Current Time: May 31, 2016 at 8:08:10 AM

Latest Report: May 31, 2016 at 7:00 AM


Visibility: 16 mi

Pressure: 29.88 "Hg

Humidity: 83%

Dew Point: 62 °F

Location of BiałystokLocation

Past Weather in Białystok — Graph

°F

Białystok Temperature Yesterday

Maximum temperature yesterday: 81 °F (at 1:00 PM)
Minimum temperature yesterday: 60 °F (at 3:00 AM)
Average temperature yesterday: 69 °F

High & Low Weather Summary for the Past Weeks

 TemperatureHumidityPressure
High81 °F (May 30, 1:00 PM)98% (May 18, 6:00 AM)30.10 "Hg (May 18, 6:00 AM)
Low33 °F (May 18, 4:00 AM)31% (May 24, 4:00 PM)29.76 "Hg (May 25, 5:00 PM)
Average59 °F70%29.95 "Hg
* Reported May 16 5:00 PM — May 31 7:00 AM, Białystok, Weather by CustomWeather, © 2016

Note: Actual official high and low records may vary slightly from our data, if they occured in-between our weather recording intervals... More about our weather records

Advertising

Białystok Weather History for the Previous 24 Hours

Scroll right to see more
 ConditionsComfort  
Time TempWeatherWind HumidityBarometerVisibility
7:00 AM
Tue, May 31
67 °FOvercast.3 mph83%29.88 "Hg16 mi
6:00 AM63 °FOvercast.2 mph90%29.88 "Hg11 mi
5:00 AM62 °FOvercast.1 mph93%29.88 "Hg9 mi
4:00 AM61 °FPassing clouds.2 mph92%29.88 "Hg9 mi
3:00 AM61 °FPassing clouds.1 mph92%29.88 "Hg11 mi
2:00 AM61 °FPassing clouds.2 mph95%29.88 "Hg11 mi
1:00 AM60 °FFog.1 mph92%29.88 "Hg5 mi
12:00 AM61 °FFog.1 mph94%29.88 "Hg6 mi
11:00 PM
Mon, May 30
62 °FFog.1 mph90%29.88 "Hg6 mi
10:00 PM66 °FPassing clouds.2 mph84%29.87 "Hg7 mi
9:00 PM68 °FPassing clouds.2 mph84%29.87 "Hg13 mi
8:00 PM68 °FPartly sunny.1 mph86%29.86 "Hg8 mi
7:00 PM72 °FPartly sunny.2 mph71%29.85 "Hg17 mi
6:00 PM72 °FPartly sunny.2 mph70%29.84 "Hg22 mi
5:00 PM75 °FOvercast.1 mph70%29.83 "Hg16 mi
4:00 PM72 °FLight rain. Overcast.1 mph82%29.85 "Hg11 mi
3:00 PM72 °FThundershowers. Overcast.2 mph74%29.86 "Hg15 mi
2:00 PM71 °FThundershowers. Overcast.6 mph59%29.87 "Hg2 mi
1:00 PM81 °FPartly sunny.5 mph47%29.85 "Hg19 mi
11:00 AM78 °FScattered clouds.5 mph53%29.88 "Hg17 mi
10:00 AM77 °FPassing clouds.3 mph61%29.89 "Hg18 mi
9:00 AM74 °FPassing clouds.2 mph68%29.89 "Hg13 mi
Weather by CustomWeather, © 2016

See weather overviewHow to use our weather pages